This is the latest recevied weather packets stored in our database for station/object M0UPS-13. If no packets are shown the sender has not sent any weather packets the latest 10 day(s).
| Time | Temp. | Humidity | Pressure | Rain* | Wind** | Luminosity | Snow |
|---|---|---|---|---|---|---|---|
| 1777639202 | 25.56° C | 33% | 1019.6 hPa | 0 mm | - | 686 W/m² | - |
| 1777638903 | 25° C | 35% | 1019.6 hPa | 0 mm | - | 687 W/m² | - |
| 1777638602 | 24.44° C | 35% | 1019.7 hPa | 0 mm | - | 693 W/m² | - |
| 1777638302 | 24.44° C | 35% | 1019.9 hPa | 0 mm | - | 696 W/m² | - |
| 1777638002 | 24.44° C | 35% | 1019.8 hPa | 0 mm | - | 694 W/m² | - |
| 1777637703 | 24.44° C | 35% | 1019.7 hPa | 0 mm | - | 693 W/m² | - |
| 1777637403 | 23.89° C | 34% | 1020 hPa | 0 mm | - | 702 W/m² | - |
| 1777637103 | 23.89° C | 35% | 1020.1 hPa | 0 mm | - | 704 W/m² | - |
| 1777636802 | 24.44° C | 34% | 1020.1 hPa | 0 mm | - | 703 W/m² | - |
| 1777636502 | 23.89° C | 36% | 1020.1 hPa | 0 mm | - | 707 W/m² | - |
| 1777636202 | 23.89° C | 35% | 1020.1 hPa | 0 mm | - | 708 W/m² | - |
| 1777635903 | 23.89° C | 34% | 1020.1 hPa | 0 mm | - | 709 W/m² | - |
| 1777635602 | 23.89° C | 34% | 1020.2 hPa | 0 mm | - | 710 W/m² | - |
| 1777635302 | 23.89° C | 34% | 1020.2 hPa | 0 mm | - | 708 W/m² | - |
| 1777635002 | 23.89° C | 34% | 1020 hPa | 0 mm | - | 709 W/m² | - |
| 1777634703 | 23.33° C | 35% | 1020.2 hPa | 0 mm | - | 708 W/m² | - |
| 1777634402 | 23.33° C | 34% | 1020.2 hPa | 0 mm | - | 706 W/m² | - |
| 1777634103 | 23.33° C | 38% | 1020.2 hPa | 0 mm | - | 703 W/m² | - |
| 1777633802 | 23.33° C | 35% | 1020.3 hPa | 0 mm | - | 701 W/m² | - |
| 1777633502 | 23.33° C | 35% | 1020.2 hPa | 0 mm | - | 699 W/m² | - |
| 1777633202 | 23.33° C | 34% | 1020.2 hPa | 0 mm | - | 696 W/m² | - |
| 1777632903 | 23.33° C | 37% | 1020.3 hPa | 0 mm | - | 692 W/m² | - |
| 1777632602 | 23.33° C | 36% | 1020.4 hPa | 0 mm | - | 687 W/m² | - |
| 1777632302 | 23.33° C | 35% | 1020.4 hPa | 0 mm | - | 684 W/m² | - |
| 1777632003 | 22.78° C | 35% | 1020.5 hPa | 0 mm | - | 677 W/m² | - |
* Rain latest hour (hover to see other rain measurements)
** Current wind speed in m/s (hover to see current wind gust speed)